Regional Weather Roundup
Issued by NWS

Home | Current Version | Previous Version | Text Only | Print | Product List | Glossary On
Versions: 1 2 3 4 5 6 7 8 9 10 11 12 13 14 15 16 17 18 19 20 21 22 23 24 25 26 27 28 29 30 31 32 33 34 35 36 37 38 39 40 41 42 43 44 45 46 47 48 49 50
000
ASUS45 KABQ 220710
RWRNM
NEW MEXICO REGIONAL WEATHER ROUNDUP
NATIONAL WEATHER SERVICE ALBUQUERQUE NM
100 AM MDT SAT JUL 22 2017

NOTE: "FAIR" MEANS FEW OR NO CLOUDS BELOW 12,000 FEET AGL WITH NO
       SIGNIFICANT WEATHER OR OBSTRUCTIONS TO VISION.

      THIS PRODUCT IS RELEASED AS TWO VERSIONS.  ONE VERSION NEAR
      THE TOP OF THE HOUR CONTAINING PRELIMINARY DATA FROM ALBUQUERQUE
      AND OTHER STATIONS.  A FINAL VERSION WITH ADDITIONAL DATA IS
      ISSUED ABOUT 10 MINUTES AFTER THE HOUR.

NMZ501-503-504-510>518-220800-
NORTHWEST PLATEAU/NORTHCENTRAL MOUNTAINS

CITY           SKY/WX    TMP DP  RH WIND       PRES   REMARKS
FARMINGTON     FAIR      69  61  75 E6        30.15S
LOS ALAMOS     FAIR      70  49  46 SW9       30.29S
SANTA FE       FAIR      71  52  50 SW10      30.23R
TAOS           FAIR      63  45  51 E7        30.30S
ANGEL FIRE     FAIR      50  45  85 CALM      30.39S

$$
NMZ402-403-502-505>509-220800-
WESTCENTRAL MOUNTAINS/SOUTHWEST MOUNTAINS

CITY           SKY/WX    TMP DP  RH WIND       PRES   REMARKS
GALLUP         FAIR      62  57  83 W3        30.24S
GRANTS         FAIR      59  53  80 CALM      30.27S
SILVER CITY    LGT RAIN  67  64  90 W6        30.19S

$$
NMZ407-409-411-412-220800-
SOUTHERN DESERTS

CITY           SKY/WX    TMP DP  RH WIND       PRES   REMARKS
DEMING         FAIR      71  66  84 SW6       30.11F
LAS CRUCES     MOCLDY    69  67  95 CALM      30.13S
HOLLOMAN AFB   FAIR      74  60  60 SE3       30.11S
ALAMOGORDO     FAIR      70  59  68 S3        30.11F
T OR C         FAIR      71  56  58 SE9       30.14R

$$
NMZ519>523-220800-
CENTRAL VALLEYS/CENTRAL HIGHLANDS

CITY           SKY/WX    TMP DP  RH WIND       PRES   REMARKS
ALBUQUERQUE    FAIR      75  53  46 S10       30.17R
DOUBLE EAGLE   CLOUDY    69  53  56 S5        30.20S
MORIARTY ARPT  FAIR      66  54  64 SE5       30.23S
CLINES CORNERS FAIR      63  51  65 SW12      30.28F
BELEN          FAIR      72  53  51 S5        30.16R
SOCORRO        FAIR      70  59  68 SE8       30.13S

$$
NMZ524>526-539-540-220800-
SOUTHCENTRAL MOUNTAINS

CITY           SKY/WX    TMP DP  RH WIND       PRES   REMARKS
RUIDOSO        FAIR      59  54  82 W8        30.29S

$$
NMZ527>531-220800-
NORTHEAST HIGHLANDS/NORTHEAST PLAINS

CITY           SKY/WX    TMP DP  RH WIND       PRES   REMARKS
LAS VEGAS      FAIR      64  52  64 SW14      30.25S
RATON          MOCLDY    71  50  47 NE16      30.22R
CLAYTON        FAIR      71  52  50 SW7       30.10R

$$
NMZ532>537-220800-
EASTCENTRAL PLAINS

CITY           SKY/WX    TMP DP  RH WIND       PRES   REMARKS
SANTA ROSA     FAIR      75  46  35 SW7       30.08S
TUCUMCARI      FAIR      76  56  49 SW8       30.02R
CANNON AFB     FAIR      74  59  60 S6        30.10S
CLOVIS AIRPORT FAIR      71  59  65 S7        30.10S

$$
NMZ028-029-538-220800-
SOUTHEAST PLAINS

CITY           SKY/WX    TMP DP  RH WIND       PRES   REMARKS
ROSWELL        FAIR      74  56  53 S7        30.04S
ARTESIA        FAIR      73  61  64 W6        30.05S
CARLSBAD       FAIR      76  67  73 S8        30.02S
HOBBS          FAIR      73  66  78 S3        30.08S


$$




USA.gov is the U.S. government's official web portal to all federal, state and local government web resources and services.